Time,TemperatureF,DewpointF,PressureIn,WindDirection,WindDirectionDegrees,WindSpeedMPH,WindSpeedGustMPH,Humidity,HourlyPrecipIn,Conditions,Clouds,dailyrainin,SoftwareType,DateUTC
2013-06-01 00:01:00,65.1,63.0,29.99,WNW,293,0.0,0.0,93,0.00,,,0.00,WUHU216DAVISVP2,2013-06-01 04:01:00,
2013-06-01 00:06:00,64.8,62.4,29.99,WNW,293,1.0,1.0,92,0.00,,,0.00,WUHU216DAVISVP2,2013-06-01 04:06:00,
2013-06-01 00:11:00,65.1,63.0,29.99,East,87,2.0,2.0,93,0.00,,,0.00,WUHU216DAVISVP2,2013-06-01 04:11:00,
2013-06-01 00:16:00,65.6,63.5,29.99,North,11,1.0,2.0,93,0.00,,,0.00,WUHU216DAVISVP2,2013-06-01 04:16:00,
2013-06-01 00:21:00,65.3,62.9,30.00,ENE,70,1.0,2.0,92,0.00,,,0.00,WUHU216DAVISVP2,2013-06-01 04:21:00,
2013-06-01 00:26:00,65.3,63.2,29.99,ENE,76,1.0,2.0,93,0.00,,,0.00,WUHU216DAVISVP2,2013-06-01 04:26:00,
2013-06-01 00:31:00,65.1,62.7,30.00,WNW,298,0.0,1.0,92,0.00,,,0.00,WUHU216DAVISVP2,2013-06-01 04:31:00,
2013-06-01 00:36:00,65.2,63.1,30.00,WNW,298,1.0,1.0,93,0.00,,,0.00,WUHU216DAVISVP2,2013-06-01 04:36:00,
2013-06-01 00:41:00,65.3,62.9,30.00,WNW,287,1.0,1.0,92,0.00,,,0.00,WUHU216DAVISVP2,2013-06-01 04:41:00,
2013-06-01 00:46:00,64.9,62.5,30.00,WNW,287,1.0,1.0,92,0.00,,,0.00,WUHU216DAVISVP2,2013-06-01 04:46:00,
2013-06-01 00:51:00,65.1,63.0,30.00,SSE,163,0.0,1.0,93,0.00,,,0.00,WUHU216DAVISVP2,2013-06-01 04:51:00,
2013-06-01 00:56:00,65.0,62.6,30.00,SSE,163,0.0,1.0,92,0.00,,,0.00,WUHU216DAVISVP2,2013-06-01 04:56:00,
2013-06-01 01:01:00,64.9,62.8,30.00,SSE,163,0.0,1.0,93,0.00,,,0.00,WUHU216DAVISVP2,2013-06-01 05:01:00,
2013-06-01 01:06:00,64.7,62.6,30.00,SSE,163,0.0,1.0,93,0.00,,,0.00,WUHU216DAVISVP2,2013-06-01 05:06:00,
2013-06-01 01:11:00,64.7,62.6,30.00,SSE,163,0.0,0.0,93,0.00,,,0.00,WUHU216DAVISVP2,2013-06-01 05:11:00,
2013-06-01 01:16:00,64.5,62.4,30.00,SSE,163,0.0,0.0,93,0.00,,,0.00,WUHU216DAVISVP2,2013-06-01 05:16:00,
2013-06-01 01:21:00,64.3,62.2,30.00,SSE,163,0.0,0.0,93,0.00,,,0.00,WUHU216DAVISVP2,2013-06-01 05:21:00,
2013-06-01 01:26:00,64.1,62.0,30.00,SSE,163,0.0,0.0,93,0.00,,,0.00,WUHU216DAVISVP2,2013-06-01 05:26:00,
2013-06-01 01:31:00,64.2,62.4,30.01,SSE,163,0.0,0.0,94,0.00,,,0.00,WUHU216DAVISVP2,2013-06-01 05:31:00,
2013-06-01 01:36:00,64.1,62.0,30.00,SSE,163,0.0,0.0,93,0.00,,,0.00,WUHU216DAVISVP2,2013-06-01 05:36:00,
2013-06-01 01:41:00,64.2,62.4,30.00,SSE,163,0.0,0.0,94,0.00,,,0.00,WUHU216DAVISVP2,2013-06-01 05:41:00,
2013-06-01 01:46:00,64.2,62.4,30.00,SSE,163,0.0,0.0,94,0.00,,,0.00,WUHU216DAVISVP2,2013-06-01 05:46:00,
2013-06-01 01:51:00,64.2,62.1,30.01,SSE,163,0.0,0.0,93,0.00,,,0.00,WUHU216DAVISVP2,2013-06-01 05:51:00,
2013-06-01 01:56:00,64.2,62.4,30.01,SSE,163,0.0,0.0,94,0.00,,,0.00,WUHU216DAVISVP2,2013-06-01 05:56:00,
2013-06-01 02:01:00,64.4,62.6,30.01,SSE,163,0.0,0.0,94,0.00,,,0.00,WUHU216DAVISVP2,2013-06-01 06:01:00,
2013-06-01 02:06:00,64.5,62.7,30.01,SSE,163,0.0,0.0,94,0.00,,,0.00,WUHU216DAVISVP2,2013-06-01 06:06:00,
2013-06-01 02:11:00,64.8,63.0,30.01,SSE,163,0.0,0.0,94,0.00,,,0.00,WUHU216DAVISVP2,2013-06-01 06:11:00,
2013-06-01 02:16:00,64.7,62.6,30.00,SSE,164,0.0,0.0,93,0.00,,,0.00,WUHU216DAVISVP2,2013-06-01 06:16:00,
2013-06-01 02:21:00,64.7,62.9,30.00,SSE,163,0.0,0.0,94,0.00,,,0.00,WUHU216DAVISVP2,2013-06-01 06:21:00,
2013-06-01 02:26:00,64.9,63.1,30.00,SSE,163,0.0,0.0,94,0.00,,,0.00,WUHU216DAVISVP2,2013-06-01 06:26:00,
2013-06-01 02:31:00,65.0,62.9,30.00,SSE,163,0.0,0.0,93,0.00,,,0.00,WUHU216DAVISVP2,2013-06-01 06:31:00,
2013-06-01 02:36:00,65.0,62.9,30.00,SSE,163,0.0,0.0,93,0.00,,,0.00,WUHU216DAVISVP2,2013-06-01 06:36:00,
2013-06-01 02:41:00,65.0,62.9,30.01,SSE,163,0.0,0.0,93,0.00,,,0.00,WUHU216DAVISVP2,2013-06-01 06:41:00,
2013-06-01 02:46:00,65.0,62.9,30.00,SSE,163,0.0,0.0,93,0.00,,,0.00,WUHU216DAVISVP2,2013-06-01 06:46:00,
2013-06-01 02:51:00,65.0,62.9,30.00,SSE,163,0.0,0.0,93,0.00,,,0.00,WUHU216DAVISVP2,2013-06-01 06:51:00,
2013-06-01 02:56:00,65.0,62.9,30.00,SSE,164,0.0,0.0,93,0.00,,,0.00,WUHU216DAVISVP2,2013-06-01 06:56:00,
2013-06-01 03:01:00,65.0,62.9,30.00,SSE,163,0.0,0.0,93,0.00,,,0.00,WUHU216DAVISVP2,2013-06-01 07:01:00,
2013-06-01 03:06:00,65.0,62.9,30.00,SSE,162,0.0,0.0,93,0.00,,,0.00,WUHU216DAVISVP2,2013-06-01 07:06:00,
2013-06-01 03:11:00,65.0,62.9,30.00,SSE,163,0.0,0.0,93,0.00,,,0.00,WUHU216DAVISVP2,2013-06-01 07:11:00,
2013-06-01 03:16:00,65.0,62.9,30.00,SSE,163,0.0,0.0,93,0.00,,,0.00,WUHU216DAVISVP2,2013-06-01 07:16:00,
2013-06-01 03:21:00,65.0,62.9,30.00,SSE,163,0.0,0.0,93,0.00,,,0.00,WUHU216DAVISVP2,2013-06-01 07:21:00,
2013-06-01 03:26:00,65.2,63.4,30.00,SSE,163,0.0,1.0,94,0.00,,,0.00,WUHU216DAVISVP2,2013-06-01 07:26:00,
2013-06-01 03:31:00,65.2,63.1,29.99,SSE,163,0.0,1.0,93,0.00,,,0.00,WUHU216DAVISVP2,2013-06-01 07:31:00,
2013-06-01 03:36:00,65.1,63.0,29.99,SSE,163,0.0,1.0,93,0.00,,,0.00,WUHU216DAVISVP2,2013-06-01 07:36:00,
2013-06-01 03:41:00,65.0,62.9,29.99,SSE,163,0.0,1.0,93,0.00,,,0.00,WUHU216DAVISVP2,2013-06-01 07:41:00,
2013-06-01 03:46:00,64.9,62.8,29.99,SSE,163,0.0,0.0,93,0.00,,,0.00,WUHU216DAVISVP2,2013-06-01 07:46:00,
2013-06-01 03:51:00,64.9,63.1,29.99,SSE,163,0.0,0.0,94,0.00,,,0.00,WUHU216DAVISVP2,2013-06-01 07:51:00,
2013-06-01 03:56:00,64.9,62.8,29.99,SSE,163,0.0,0.0,93,0.00,,,0.00,WUHU216DAVISVP2,2013-06-01 07:56:00,
2013-06-01 04:01:00,64.6,62.5,29.99,SSE,163,0.0,0.0,93,0.00,,,0.00,WUHU216DAVISVP2,2013-06-01 08:01:00,
2013-06-01 04:06:00,64.6,62.8,29.99,SSE,163,0.0,0.0,94,0.00,,,0.00,WUHU216DAVISVP2,2013-06-01 08:06:00,
2013-06-01 04:11:00,64.4,62.6,29.99,SSE,163,0.0,0.0,94,0.00,,,0.00,WUHU216DAVISVP2,2013-06-01 08:11:00,
2013-06-01 04:16:00,64.2,62.4,29.99,SSE,163,0.0,0.0,94,0.00,,,0.00,WUHU216DAVISVP2,2013-06-01 08:16:00,
2013-06-01 04:21:00,64.1,62.3,29.99,SSE,163,0.0,0.0,94,0.00,,,0.00,WUHU216DAVISVP2,2013-06-01 08:21:00,
2013-06-01 04:26:00,64.3,62.5,29.99,SSE,163,0.0,0.0,94,0.00,,,0.00,WUHU216DAVISVP2,2013-06-01 08:26:00,
2013-06-01 04:31:00,64.2,62.4,29.99,SSE,163,0.0,0.0,94,0.00,,,0.00,WUHU216DAVISVP2,2013-06-01 08:31:00,
2013-06-01 04:36:00,64.1,62.3,29.98,SSE,163,0.0,0.0,94,0.00,,,0.00,WUHU216DAVISVP2,2013-06-01 08:36:00,
2013-06-01 04:41:00,63.8,62.0,29.98,SSE,163,0.0,0.0,94,0.00,,,0.00,WUHU216DAVISVP2,2013-06-01 08:41:00,
2013-06-01 04:46:00,63.7,61.9,29.98,SSE,163,0.0,1.0,94,0.00,,,0.00,WUHU216DAVISVP2,2013-06-01 08:46:00,
2013-06-01 04:51:00,63.6,61.8,29.98,SE,138,1.0,1.0,94,0.00,,,0.00,WUHU216DAVISVP2,2013-06-01 08:51:00,
2013-06-01 04:56:00,63.3,61.5,29.98,SE,138,0.0,1.0,94,0.00,,,0.00,WUHU216DAVISVP2,2013-06-01 08:56:00,
2013-06-01 05:01:00,63.2,61.4,29.98,SE,138,0.0,1.0,94,0.00,,,0.00,WUHU216DAVISVP2,2013-06-01 09:01:00,
2013-06-01 05:06:00,63.3,61.5,29.98,SE,138,0.0,1.0,94,0.00,,,0.00,WUHU216DAVISVP2,2013-06-01 09:06:00,
2013-06-01 05:11:00,63.1,61.3,29.98,SE,138,0.0,0.0,94,0.00,,,0.00,WUHU216DAVISVP2,2013-06-01 09:11:00,
2013-06-01 05:16:00,62.8,61.0,29.98,SE,138,0.0,0.0,94,0.00,,,0.00,WUHU216DAVISVP2,2013-06-01 09:16:00,
2013-06-01 05:21:00,62.9,61.1,29.98,SE,138,0.0,0.0,94,0.00,,,0.00,WUHU216DAVISVP2,2013-06-01 09:21:00,
2013-06-01 05:26:00,62.8,61.0,29.98,SE,138,0.0,0.0,94,0.00,,,0.00,WUHU216DAVISVP2,2013-06-01 09:26:00,
2013-06-01 05:31:00,62.6,60.8,29.98,SE,138,0.0,0.0,94,0.00,,,0.00,WUHU216DAVISVP2,2013-06-01 09:31:00,
2013-06-01 05:36:00,62.5,60.7,29.98,SE,138,0.0,0.0,94,0.00,,,0.00,WUHU216DAVISVP2,2013-06-01 09:36:00,
2013-06-01 05:41:00,62.6,60.8,29.98,SE,138,0.0,0.0,94,0.00,,,0.00,WUHU216DAVISVP2,2013-06-01 09:41:00,
2013-06-01 05:46:00,62.2,60.4,29.98,SE,138,0.0,0.0,94,0.00,,,0.00,WUHU216DAVISVP2,2013-06-01 09:46:00,
2013-06-01 05:51:00,61.7,59.9,29.98,SE,138,0.0,0.0,94,0.00,,,0.00,WUHU216DAVISVP2,2013-06-01 09:51:00,
2013-06-01 05:56:00,61.7,59.9,29.99,SE,138,0.0,0.0,94,0.00,,,0.00,WUHU216DAVISVP2,2013-06-01 09:56:00,
2013-06-01 06:01:00,61.9,60.1,29.99,SE,138,0.0,1.0,94,0.00,,,0.00,WUHU216DAVISVP2,2013-06-01 10:01:00,
2013-06-01 06:06:00,62.0,60.2,29.99,SE,138,0.0,1.0,94,0.00,,,0.00,WUHU216DAVISVP2,2013-06-01 10:06:00,
2013-06-01 06:11:00,61.6,59.8,29.99,SE,138,0.0,1.0,94,0.00,,,0.00,WUHU216DAVISVP2,2013-06-01 10:11:00,
2013-06-01 06:16:00,61.5,59.7,29.99,SE,138,0.0,1.0,94,0.00,,,0.00,WUHU216DAVISVP2,2013-06-01 10:16:00,
2013-06-01 06:21:00,61.5,59.7,29.99,SE,138,0.0,0.0,94,0.00,,,0.00,WUHU216DAVISVP2,2013-06-01 10:21:00,
2013-06-01 06:26:00,61.6,59.8,29.99,SE,138,0.0,0.0,94,0.00,,,0.00,WUHU216DAVISVP2,2013-06-01 10:26:00,
2013-06-01 06:31:00,61.7,60.0,29.99,SE,138,0.0,0.0,94,0.00,,,0.00,WUHU216DAVISVP2,2013-06-01 10:31:00,
2013-06-01 06:36:00,61.8,60.1,29.99,SE,138,0.0,0.0,94,0.00,,,0.00,WUHU216DAVISVP2,2013-06-01 10:36:00,
2013-06-01 06:41:00,62.1,60.4,30.00,SE,138,0.0,0.0,94,0.00,,,0.00,WUHU216DAVISVP2,2013-06-01 10:41:00,
2013-06-01 06:46:00,62.3,60.6,30.00,SE,138,0.0,0.0,94,0.00,,,0.00,WUHU216DAVISVP2,2013-06-01 10:46:00,
2013-06-01 06:51:00,62.2,60.5,30.00,SE,138,0.0,0.0,94,0.00,,,0.00,WUHU216DAVISVP2,2013-06-01 10:51:00,
2013-06-01 06:56:00,62.3,60.6,30.00,SE,138,0.0,0.0,94,0.00,,,0.00,WUHU216DAVISVP2,2013-06-01 10:56:00,
2013-06-01 07:01:00,62.6,60.8,30.00,SE,138,0.0,0.0,94,0.00,,,0.00,WUHU216DAVISVP2,2013-06-01 11:01:00,
2013-06-01 07:06:00,63.1,61.3,30.00,SE,138,0.0,0.0,94,0.00,,,0.00,WUHU216DAVISVP2,2013-06-01 11:06:00,
2013-06-01 07:11:00,63.6,61.8,30.00,SE,138,0.0,0.0,94,0.00,,,0.00,WUHU216DAVISVP2,2013-06-01 11:11:00,
2013-06-01 07:16:00,64.5,62.7,30.00,SE,138,0.0,0.0,94,0.00,,,0.00,WUHU216DAVISVP2,2013-06-01 11:16:00,
2013-06-01 07:21:00,65.2,63.4,30.00,SE,138,0.0,0.0,94,0.00,,,0.00,WUHU216DAVISVP2,2013-06-01 11:21:00,
2013-06-01 07:26:00,65.2,63.7,30.00,SE,138,0.0,0.0,95,0.00,,,0.00,WUHU216DAVISVP2,2013-06-01 11:26:00,
2013-06-01 07:31:00,65.2,63.4,30.00,SE,138,0.0,0.0,94,0.00,,,0.00,WUHU216DAVISVP2,2013-06-01 11:31:00,
2013-06-01 07:36:00,65.3,63.5,30.00,SE,138,0.0,0.0,94,0.00,,,0.00,WUHU216DAVISVP2,2013-06-01 11:36:00,
2013-06-01 07:41:00,65.5,63.7,30.00,SE,138,0.0,0.0,94,0.00,,,0.00,WUHU216DAVISVP2,2013-06-01 11:41:00,
2013-06-01 07:46:00,65.8,64.0,30.00,SE,138,0.0,0.0,94,0.00,,,0.00,WUHU216DAVISVP2,2013-06-01 11:46:00,
2013-06-01 07:51:00,66.6,64.8,30.00,SE,138,0.0,0.0,94,0.00,,,0.00,WUHU216DAVISVP2,2013-06-01 11:51:00,
2013-06-01 07:56:00,67.8,65.1,30.00,SE,138,1.0,1.0,91,0.00,,,0.00,WUHU216DAVISVP2,2013-06-01 11:56:00,
2013-06-01 08:01:00,68.4,65.6,30.00,SE,138,0.0,1.0,91,0.00,,,0.00,WUHU216DAVISVP2,2013-06-01 12:01:00,
2013-06-01 08:06:00,69.0,65.6,30.00,SE,138,0.0,1.0,89,0.00,,,0.00,WUHU216DAVISVP2,2013-06-01 12:06:00,
2013-06-01 08:12:00,69.2,65.8,30.00,SE,138,0.0,1.0,89,0.00,,,0.00,WUHU216DAVISVP2,2013-06-01 12:12:00,
2013-06-01 08:17:00,69.9,66.2,30.00,SE,138,0.0,0.0,88,0.00,,,0.00,WUHU216DAVISVP2,2013-06-01 12:17:00,
2013-06-01 08:22:00,70.5,66.5,30.00,SE,138,0.0,0.0,87,0.00,,,0.00,WUHU216DAVISVP2,2013-06-01 12:22:00,
2013-06-01 08:27:00,71.4,66.4,30.00,SE,138,1.0,1.0,84,0.00,,,0.00,WUHU216DAVISVP2,2013-06-01 12:27:00,
2013-06-01 08:32:00,72.1,67.4,29.99,SE,138,0.0,1.0,85,0.00,,,0.00,WUHU216DAVISVP2,2013-06-01 12:32:00,
2013-06-01 08:37:00,72.8,67.1,29.99,SE,138,1.0,1.0,82,0.00,,,0.00,WUHU216DAVISVP2,2013-06-01 12:37:00,
2013-06-01 08:42:00,73.5,67.7,29.99,ESE,113,1.0,1.0,82,0.00,,,0.00,WUHU216DAVISVP2,2013-06-01 12:42:00,
2013-06-01 08:47:00,74.5,68.0,29.99,NE,39,0.0,1.0,80,0.00,,,0.00,WUHU216DAVISVP2,2013-06-01 12:47:00,
2013-06-01 08:52:00,75.5,68.3,29.99,NNE,28,0.0,1.0,78,0.00,,,0.00,WUHU216DAVISVP2,2013-06-01 12:52:00,
2013-06-01 08:57:00,76.1,68.9,29.99,NNE,29,1.0,1.0,78,0.00,,,0.00,WUHU216DAVISVP2,2013-06-01 12:57:00,
2013-06-01 09:02:00,77.0,68.6,29.99,NNE,29,1.0,1.0,75,0.00,,,0.00,WUHU216DAVISVP2,2013-06-01 13:02:00,
2013-06-01 09:07:00,76.8,69.5,29.99,NNE,28,0.0,2.0,78,0.00,,,0.00,WUHU216DAVISVP2,2013-06-01 13:07:00,
2013-06-01 09:12:00,77.5,69.5,29.99,NNE,29,1.0,2.0,76,0.00,,,0.00,WUHU216DAVISVP2,2013-06-01 13:12:00,
2013-06-01 09:17:00,78.3,70.3,29.99,NNE,24,1.0,2.0,76,0.00,,,0.00,WUHU216DAVISVP2,2013-06-01 13:17:00,
2013-06-01 09:22:00,79.2,71.1,29.99,NNE,23,1.0,2.0,76,0.00,,,0.00,WUHU216DAVISVP2,2013-06-01 13:22:00,
2013-06-01 09:27:00,79.6,70.8,29.98,NNE,28,1.3,2.0,74,0.00,,,0.00,WUHU216DAVISVP2,2013-06-01 13:27:00,
2013-06-01 09:32:00,79.7,70.5,29.98,NE,40,0.0,2.0,73,0.00,,,0.00,WUHU216DAVISVP2,2013-06-01 13:32:00,
2013-06-01 09:37:00,80.3,69.0,29.98,NNE,12,1.0,2.0,68,0.00,,,0.00,WUHU216DAVISVP2,2013-06-01 13:37:00,
2013-06-01 09:42:00,80.8,70.3,29.98,ESE,102,1.1,3.0,70,0.00,,,0.00,WUHU216DAVISVP2,2013-06-01 13:42:00,
2013-06-01 09:47:00,81.5,67.5,29.98,NNE,22,1.0,3.0,62,0.00,,,0.00,WUHU216DAVISVP2,2013-06-01 13:47:00,
2013-06-01 09:52:00,82.4,66.4,29.97,ESE,109,1.6,3.0,58,0.00,,,0.00,WUHU216DAVISVP2,2013-06-01 13:52:00,
2013-06-01 09:57:00,83.3,66.7,29.97,East,80,3.0,6.0,57,0.00,,,0.00,WUHU216DAVISVP2,2013-06-01 13:57:00,
2013-06-01 10:02:00,83.6,67.5,29.97,ESE,104,1.4,6.0,58,0.00,,,0.00,WUHU216DAVISVP2,2013-06-01 14:02:00,
2013-06-01 10:07:00,83.9,65.1,29.97,West,270,3.2,7.0,53,0.00,,,0.00,WUHU216DAVISVP2,2013-06-01 14:07:00,
2013-06-01 10:12:00,83.7,64.8,29.97,West,272,5.0,9.0,53,0.00,,,0.00,WUHU216DAVISVP2,2013-06-01 14:12:00,
2013-06-01 10:17:00,83.7,64.8,29.97,WSW,247,1.7,9.0,53,0.00,,,0.00,WUHU216DAVISVP2,2013-06-01 14:17:00,
2013-06-01 10:22:00,84.1,65.9,29.97,West,275,2.5,9.0,54,0.00,,,0.00,WUHU216DAVISVP2,2013-06-01 14:22:00,
2013-06-01 10:27:00,84.2,64.3,29.97,WNW,283,4.0,9.0,51,0.00,,,0.00,WUHU216DAVISVP2,2013-06-01 14:27:00,
2013-06-01 10:32:00,84.6,65.8,29.97,SE,130,2.2,7.0,53,0.00,,,0.00,WUHU216DAVISVP2,2013-06-01 14:32:00,
2013-06-01 10:37:00,84.8,65.4,29.97,West,262,5.0,8.0,52,0.00,,,0.00,WUHU216DAVISVP2,2013-06-01 14:37:00,
2013-06-01 10:42:00,84.6,64.6,29.97,West,272,5.1,8.0,51,0.00,,,0.00,WUHU216DAVISVP2,2013-06-01 14:42:00,
2013-06-01 10:47:00,84.7,65.3,29.96,West,273,6.0,8.0,52,0.00,,,0.00,WUHU216DAVISVP2,2013-06-01 14:47:00,
2013-06-01 10:52:00,84.9,64.9,29.96,SW,228,2.6,8.0,51,0.00,,,0.00,WUHU216DAVISVP2,2013-06-01 14:52:00,
2013-06-01 10:57:00,85.5,64.9,29.96,WSW,253,2.7,8.0,50,0.00,,,0.00,WUHU216DAVISVP2,2013-06-01 14:57:00,
2013-06-01 11:02:00,85.8,66.3,29.96,South,181,5.0,8.0,52,0.00,,,0.00,WUHU216DAVISVP2,2013-06-01 15:02:00,
2013-06-01 11:07:00,85.9,65.3,29.96,WNW,288,3.1,7.0,50,0.00,,,0.00,WUHU216DAVISVP2,2013-06-01 15:07:00,
2013-06-01 11:12:00,85.6,68.3,29.96,WSW,256,2.3,7.0,56,0.00,,,0.00,WUHU216DAVISVP2,2013-06-01 15:12:00,
2013-06-01 11:17:00,85.7,65.1,29.97,SE,125,4.5,10.0,50,0.00,,,0.00,WUHU216DAVISVP2,2013-06-01 15:17:00,
2013-06-01 11:22:00,85.9,65.8,29.97,West,274,3.3,10.0,51,0.00,,,0.00,WUHU216DAVISVP2,2013-06-01 15:22:00,
2013-06-01 11:27:00,86.2,66.1,29.97,SW,221,3.0,9.0,51,0.00,,,0.00,WUHU216DAVISVP2,2013-06-01 15:27:00,
2013-06-01 11:32:00,86.4,65.7,29.97,WSW,243,3.4,9.0,50,0.00,,,0.00,WUHU216DAVISVP2,2013-06-01 15:32:00,
2013-06-01 11:37:00,86.7,66.0,29.97,SSW,198,3.1,9.0,50,0.00,,,0.00,WUHU216DAVISVP2,2013-06-01 15:37:00,
2013-06-01 11:42:00,86.4,66.3,29.96,NW,307,3.0,8.0,51,0.00,,,0.00,WUHU216DAVISVP2,2013-06-01 15:42:00,
2013-06-01 11:47:00,86.7,65.4,29.96,SE,130,2.9,8.0,49,0.00,,,0.00,WUHU216DAVISVP2,2013-06-01 15:47:00,
2013-06-01 11:52:00,86.9,66.2,29.96,WNW,293,4.0,8.0,50,0.00,,,0.00,WUHU216DAVISVP2,2013-06-01 15:52:00,
2013-06-01 11:57:00,86.4,65.7,29.96,WNW,287,1.4,9.0,50,0.00,,,0.00,WUHU216DAVISVP2,2013-06-01 15:57:00,
2013-06-01 12:02:00,86.9,67.3,29.96,WNW,302,7.0,9.0,52,0.00,,,0.00,WUHU216DAVISVP2,2013-06-01 16:02:00,
2013-06-01 12:07:00,86.8,66.1,29.95,WNW,293,4.0,9.0,50,0.00,,,0.00,WUHU216DAVISVP2,2013-06-01 16:07:00,
2013-06-01 12:12:00,86.8,66.1,29.95,East,89,2.0,9.0,50,0.00,,,0.00,WUHU216DAVISVP2,2013-06-01 16:12:00,
2013-06-01 12:17:00,87.5,67.3,29.95,West,271,2.7,7.0,51,0.00,,,0.00,WUHU216DAVISVP2,2013-06-01 16:17:00,
2013-06-01 12:22:00,87.7,65.7,29.95,SSW,212,4.0,7.0,48,0.00,,,0.00,WUHU216DAVISVP2,2013-06-01 16:22:00,
2013-06-01 12:27:00,87.5,66.1,29.95,WSW,237,2.7,9.0,49,0.00,,,0.00,WUHU216DAVISVP2,2013-06-01 16:27:00,
2013-06-01 12:32:00,87.9,65.3,29.95,WNW,283,3.0,9.0,47,0.00,,,0.00,WUHU216DAVISVP2,2013-06-01 16:32:00,
2013-06-01 12:37:00,87.4,65.4,29.95,NW,316,2.0,9.0,48,0.00,,,0.00,WUHU216DAVISVP2,2013-06-01 16:37:00,
2013-06-01 12:42:00,87.5,65.5,29.95,SSE,148,2.6,9.0,48,0.00,,,0.00,WUHU216DAVISVP2,2013-06-01 16:42:00,
2013-06-01 12:47:00,87.8,65.8,29.95,NW,323,3.0,8.0,48,0.00,,,0.00,WUHU216DAVISVP2,2013-06-01 16:47:00,
2013-06-01 12:52:00,86.7,66.6,29.94,West,267,2.8,8.0,51,0.00,,,0.00,WUHU216DAVISVP2,2013-06-01 16:52:00,
2013-06-01 12:57:00,86.6,65.2,29.94,West,269,4.0,8.0,49,0.00,,,0.00,WUHU216DAVISVP2,2013-06-01 16:57:00,
2013-06-01 13:02:00,86.6,64.6,29.94,SW,225,1.5,8.0,48,0.00,,,0.00,WUHU216DAVISVP2,2013-06-01 17:02:00,
2013-06-01 13:07:00,87.7,66.8,29.94,West,273,4.4,9.0,50,0.00,,,0.00,WUHU216DAVISVP2,2013-06-01 17:07:00,
2013-06-01 13:12:00,88.1,66.5,29.94,WNW,293,3.0,9.0,49,0.00,,,0.00,WUHU216DAVISVP2,2013-06-01 17:12:00,
2013-06-01 13:17:00,88.7,66.5,29.94,West,268,5.1,9.0,48,0.00,,,0.00,WUHU216DAVISVP2,2013-06-01 17:17:00,
2013-06-01 13:22:00,88.2,66.0,29.94,West,276,3.0,9.0,48,0.00,,,0.00,WUHU216DAVISVP2,2013-06-01 17:22:00,
2013-06-01 13:27:00,88.6,66.4,29.94,SW,236,3.0,9.0,48,0.00,,,0.00,WUHU216DAVISVP2,2013-06-01 17:27:00,
2013-06-01 13:32:00,88.4,65.0,29.94,West,268,3.5,8.0,46,0.00,,,0.00,WUHU216DAVISVP2,2013-06-01 17:32:00,
2013-06-01 13:37:00,88.3,66.3,29.94,WSW,255,4.0,8.0,48,0.00,,,0.00,WUHU216DAVISVP2,2013-06-01 17:37:00,
2013-06-01 13:42:00,88.4,65.6,29.93,WNW,297,6.0,8.0,47,0.00,,,0.00,WUHU216DAVISVP2,2013-06-01 17:42:00,
2013-06-01 13:47:00,88.4,66.2,29.93,SW,233,4.0,8.0,48,0.00,,,0.00,WUHU216DAVISVP2,2013-06-01 17:47:00,
2013-06-01 13:52:00,89.2,68.9,29.93,WNW,288,4.0,7.0,51,0.00,,,0.00,WUHU216DAVISVP2,2013-06-01 17:52:00,
2013-06-01 13:57:00,88.1,66.1,29.93,WNW,291,3.3,7.0,48,0.00,,,0.00,WUHU216DAVISVP2,2013-06-01 17:57:00,
2013-06-01 14:02:00,87.0,65.1,29.93,WSW,257,2.0,7.0,48,0.00,,,0.00,WUHU216DAVISVP2,2013-06-01 18:02:00,
2013-06-01 14:07:00,88.0,67.8,29.92,West,266,3.4,7.0,51,0.00,,,0.00,WUHU216DAVISVP2,2013-06-01 18:07:00,
2013-06-01 14:12:00,88.1,66.1,29.92,WSW,255,4.0,9.0,48,0.00,,,0.00,WUHU216DAVISVP2,2013-06-01 18:12:00,
2013-06-01 14:17:00,86.5,66.4,29.92,SE,127,4.0,10.0,51,0.00,,,0.00,WUHU216DAVISVP2,2013-06-01 18:17:00,
2013-06-01 14:22:00,84.6,66.3,29.92,WNW,292,5.7,11.0,54,0.00,,,0.00,WUHU216DAVISVP2,2013-06-01 18:22:00,
2013-06-01 14:27:00,84.3,67.6,29.92,WNW,286,7.0,11.0,57,0.00,,,0.00,WUHU216DAVISVP2,2013-06-01 18:27:00,
2013-06-01 14:32:00,84.9,68.2,29.92,WSW,246,2.0,11.0,57,0.00,,,0.00,WUHU216DAVISVP2,2013-06-01 18:32:00,
2013-06-01 14:37:00,85.7,68.4,29.92,SW,221,7.0,11.0,56,0.00,,,0.00,WUHU216DAVISVP2,2013-06-01 18:37:00,
2013-06-01 14:42:00,85.8,70.1,29.92,WNW,287,3.5,9.0,59,0.00,,,0.00,WUHU216DAVISVP2,2013-06-01 18:42:00,
2013-06-01 14:47:00,85.3,69.1,29.92,WNW,298,6.0,9.0,58,0.00,,,0.00,WUHU216DAVISVP2,2013-06-01 18:47:00,
2013-06-01 14:52:00,85.0,69.8,29.91,NNW,331,2.4,10.0,60,0.00,,,0.00,WUHU216DAVISVP2,2013-06-01 18:52:00,
2013-06-01 14:57:00,85.0,69.8,29.91,WNW,295,3.1,10.0,60,0.00,,,0.00,WUHU216DAVISVP2,2013-06-01 18:57:00,
2013-06-01 15:02:00,85.6,70.4,29.91,WNW,292,2.0,9.0,60,0.00,,,0.00,WUHU216DAVISVP2,2013-06-01 19:02:00,
2013-06-01 15:07:00,86.2,71.0,29.91,West,277,2.0,9.0,60,0.00,,,0.00,WUHU216DAVISVP2,2013-06-01 19:07:00,
2013-06-01 15:13:00,86.5,67.5,29.91,WNW,285,2.3,7.0,53,0.00,,,0.00,WUHU216DAVISVP2,2013-06-01 19:13:00,
2013-06-01 15:18:00,86.4,68.6,29.91,WNW,284,5.0,7.0,55,0.00,,,0.00,WUHU216DAVISVP2,2013-06-01 19:18:00,
2013-06-01 15:23:00,86.3,70.0,29.91,NW,309,5.0,7.0,58,0.00,,,0.00,WUHU216DAVISVP2,2013-06-01 19:23:00,
2013-06-01 15:28:00,86.6,70.8,29.91,NNW,329,3.0,7.0,59,0.00,,,0.00,WUHU216DAVISVP2,2013-06-01 19:28:00,
2013-06-01 15:33:00,86.9,67.9,29.91,WNW,286,3.3,9.0,53,0.00,,,0.00,WUHU216DAVISVP2,2013-06-01 19:33:00,
2013-06-01 15:38:00,86.5,67.5,29.91,West,259,2.8,9.0,53,0.00,,,0.00,WUHU216DAVISVP2,2013-06-01 19:38:00,
2013-06-01 15:43:00,85.9,69.7,29.90,North,355,1.5,9.0,58,0.00,,,0.00,WUHU216DAVISVP2,2013-06-01 19:43:00,
2013-06-01 15:48:00,85.4,68.7,29.90,WNW,300,2.0,9.0,57,0.00,,,0.00,WUHU216DAVISVP2,2013-06-01 19:48:00,
2013-06-01 15:53:00,85.0,69.3,29.90,WNW,295,1.5,6.0,59,0.00,,,0.00,WUHU216DAVISVP2,2013-06-01 19:53:00,
2013-06-01 15:58:00,85.2,68.0,29.89,WNW,300,3.0,4.0,56,0.00,,,0.00,WUHU216DAVISVP2,2013-06-01 19:58:00,
2013-06-01 16:03:00,85.5,70.8,29.89,WNW,290,1.4,4.0,61,0.00,,,0.00,WUHU216DAVISVP2,2013-06-01 20:03:00,
2013-06-01 16:08:00,86.0,70.3,29.89,WNW,299,1.4,4.0,59,0.00,,,0.00,WUHU216DAVISVP2,2013-06-01 20:08:00,
2013-06-01 16:13:00,86.0,67.6,29.89,West,260,1.7,4.0,54,0.00,,,0.00,WUHU216DAVISVP2,2013-06-01 20:13:00,
2013-06-01 16:18:00,85.9,71.2,29.88,NNE,32,2.0,4.0,61,0.00,,,0.00,WUHU216DAVISVP2,2013-06-01 20:18:00,
2013-06-01 16:23:00,85.7,72.9,29.88,NNE,28,1.7,4.0,65,0.00,,,0.00,WUHU216DAVISVP2,2013-06-01 20:23:00,
2013-06-01 16:28:00,85.7,71.0,29.89,West,278,1.0,4.0,61,0.00,,,0.00,WUHU216DAVISVP2,2013-06-01 20:28:00,
2013-06-01 16:33:00,85.6,71.8,29.88,NW,321,2.0,4.0,63,0.00,,,0.00,WUHU216DAVISVP2,2013-06-01 20:33:00,
2013-06-01 16:38:00,85.3,72.5,29.88,NNE,16,1.0,4.0,65,0.00,,,0.00,WUHU216DAVISVP2,2013-06-01 20:38:00,
2013-06-01 16:43:00,85.3,71.1,29.88,NNW,329,1.0,4.0,62,0.00,,,0.00,WUHU216DAVISVP2,2013-06-01 20:43:00,
2013-06-01 16:48:00,85.5,69.0,29.88,WNW,298,1.0,4.0,58,0.00,,,0.00,WUHU216DAVISVP2,2013-06-01 20:48:00,
2013-06-01 16:53:00,86.0,69.5,29.87,WNW,293,3.0,3.0,58,0.00,,,0.00,WUHU216DAVISVP2,2013-06-01 20:53:00,
2013-06-01 16:58:00,85.9,69.4,29.88,WSW,252,1.2,4.0,58,0.00,,,0.00,WUHU216DAVISVP2,2013-06-01 20:58:00,
2013-06-01 17:03:00,85.8,70.8,29.88,WNW,297,2.3,4.0,61,0.00,,,0.00,WUHU216DAVISVP2,2013-06-01 21:03:00,
2013-06-01 17:08:00,85.6,72.5,29.88,NE,49,3.0,4.0,65,0.00,,,0.00,WUHU216DAVISVP2,2013-06-01 21:08:00,
2013-06-01 17:13:00,85.5,71.0,29.87,West,270,2.0,3.0,62,0.00,,,0.00,WUHU216DAVISVP2,2013-06-01 21:13:00,
2013-06-01 17:18:00,85.6,70.6,29.87,WNW,286,1.3,3.0,61,0.00,,,0.00,WUHU216DAVISVP2,2013-06-01 21:18:00,
2013-06-01 17:23:00,85.7,70.0,29.87,WNW,294,3.0,3.0,59,0.00,,,0.00,WUHU216DAVISVP2,2013-06-01 21:23:00,
2013-06-01 17:28:00,85.6,70.9,29.87,WNW,297,1.4,5.0,61,0.00,,,0.00,WUHU216DAVISVP2,2013-06-01 21:28:00,
2013-06-01 17:33:00,86.0,69.8,29.87,West,281,2.0,5.0,58,0.00,,,0.00,WUHU216DAVISVP2,2013-06-01 21:33:00,
2013-06-01 17:38:00,86.2,69.9,29.87,West,266,2.0,5.0,58,0.00,,,0.00,WUHU216DAVISVP2,2013-06-01 21:38:00,
2013-06-01 17:43:00,86.6,70.3,29.87,West,280,2.0,5.0,58,0.00,,,0.00,WUHU216DAVISVP2,2013-06-01 21:43:00,
2013-06-01 17:48:00,86.3,70.0,29.86,WNW,292,2.0,5.0,58,0.00,,,0.00,WUHU216DAVISVP2,2013-06-01 21:48:00,
2013-06-01 17:53:00,86.5,69.2,29.87,West,277,1.1,5.0,56,0.00,,,0.00,WUHU216DAVISVP2,2013-06-01 21:53:00,
2013-06-01 17:58:00,86.6,71.3,29.86,WNW,284,0.0,5.0,60,0.00,,,0.00,WUHU216DAVISVP2,2013-06-01 21:58:00,
2013-06-01 18:03:00,86.5,69.2,29.86,WNW,290,2.0,4.0,56,0.00,,,0.00,WUHU216DAVISVP2,2013-06-01 22:03:00,
2013-06-01 18:08:00,86.2,71.9,29.86,WNW,295,1.0,3.0,62,0.00,,,0.00,WUHU216DAVISVP2,2013-06-01 22:08:00,
2013-06-01 18:13:00,85.5,69.8,29.86,NW,308,1.4,3.0,59,0.00,,,0.00,WUHU216DAVISVP2,2013-06-01 22:13:00,
2013-06-01 18:18:00,85.1,70.9,29.86,WSW,241,1.0,3.0,62,0.00,,,0.00,WUHU216DAVISVP2,2013-06-01 22:18:00,
2013-06-01 18:23:00,85.4,72.1,29.85,West,259,1.3,3.0,64,0.00,,,0.00,WUHU216DAVISVP2,2013-06-01 22:23:00,
2013-06-01 18:28:00,85.1,71.8,29.85,West,260,1.0,3.0,64,0.00,,,0.00,WUHU216DAVISVP2,2013-06-01 22:28:00,
2013-06-01 18:33:00,84.8,73.8,29.85,West,260,1.0,2.0,69,0.00,,,0.00,WUHU216DAVISVP2,2013-06-01 22:33:00,
2013-06-01 18:38:00,84.4,74.2,29.85,West,260,0.0,2.0,71,0.00,,,0.00,WUHU216DAVISVP2,2013-06-01 22:38:00,
2013-06-01 18:43:00,84.1,73.7,29.85,West,260,1.0,1.0,71,0.00,,,0.00,WUHU216DAVISVP2,2013-06-01 22:43:00,
2013-06-01 18:48:00,83.7,72.9,29.85,West,269,1.0,1.0,70,0.00,,,0.00,WUHU216DAVISVP2,2013-06-01 22:48:00,
2013-06-01 18:53:00,83.4,73.4,29.85,NNE,13,1.3,2.0,72,0.00,,,0.00,WUHU216DAVISVP2,2013-06-01 22:53:00,
2013-06-01 18:58:00,83.7,73.9,29.85,NNE,13,0.0,2.0,72,0.00,,,0.00,WUHU216DAVISVP2,2013-06-01 22:58:00,
2013-06-01 19:03:00,84.3,74.9,29.85,NNE,13,0.0,2.0,73,0.00,,,0.00,WUHU216DAVISVP2,2013-06-01 23:03:00,
2013-06-01 19:08:00,84.5,73.5,29.85,NNE,13,0.0,2.0,69,0.00,,,0.00,WUHU216DAVISVP2,2013-06-01 23:08:00,
2013-06-01 19:13:00,84.1,73.1,29.85,NNE,13,0.0,1.0,69,0.00,,,0.00,WUHU216DAVISVP2,2013-06-01 23:13:00,
2013-06-01 19:18:00,84.0,74.0,29.84,NNE,13,0.0,1.0,72,0.00,,,0.00,WUHU216DAVISVP2,2013-06-01 23:18:00,
2013-06-01 19:23:00,84.4,73.5,29.85,NNE,13,0.0,1.0,70,0.00,,,0.00,WUHU216DAVISVP2,2013-06-01 23:23:00,
2013-06-01 19:28:00,84.1,73.3,29.84,NNE,13,1.0,1.0,70,0.00,,,0.00,WUHU216DAVISVP2,2013-06-01 23:28:00,
2013-06-01 19:33:00,83.7,73.1,29.85,NNE,13,1.0,1.0,70,0.00,,,0.00,WUHU216DAVISVP2,2013-06-01 23:33:00,
2013-06-01 19:38:00,82.8,72.0,29.85,NNE,13,0.0,1.0,70,0.00,,,0.00,WUHU216DAVISVP2,2013-06-01 23:38:00,
2013-06-01 19:43:00,82.8,71.6,29.85,NNE,13,0.0,1.0,69,0.00,,,0.00,WUHU216DAVISVP2,2013-06-01 23:43:00,
2013-06-01 19:48:00,81.5,72.0,29.84,NNE,13,1.0,1.0,73,0.00,,,0.00,WUHU216DAVISVP2,2013-06-01 23:48:00,
2013-06-01 19:53:00,80.3,71.6,29.84,NNE,13,0.0,1.0,75,0.00,,,0.00,WUHU216DAVISVP2,2013-06-01 23:53:00,
2013-06-01 19:58:00,79.9,70.7,29.84,NNE,13,0.0,1.0,73,0.00,,,0.00,WUHU216DAVISVP2,2013-06-01 23:58:00,
2013-06-01 20:03:00,79.0,70.6,29.84,NNE,13,0.0,1.0,75,0.00,,,0.00,WUHU216DAVISVP2,2013-06-02 00:03:00,
2013-06-01 20:08:00,77.9,69.9,29.84,NNE,13,0.0,0.0,76,0.00,,,0.00,WUHU216DAVISVP2,2013-06-02 00:08:00,
2013-06-01 20:13:00,77.1,69.8,29.84,NNE,13,0.0,0.0,78,0.00,,,0.00,WUHU216DAVISVP2,2013-06-02 00:13:00,
2013-06-01 20:18:00,76.5,69.6,29.84,NNE,13,0.0,0.0,79,0.00,,,0.00,WUHU216DAVISVP2,2013-06-02 00:18:00,
2013-06-01 20:23:00,75.5,69.3,29.84,NNE,13,0.0,0.0,81,0.00,,,0.00,WUHU216DAVISVP2,2013-06-02 00:23:00,
2013-06-01 20:28:00,75.0,69.5,29.84,NNE,13,0.0,0.0,83,0.00,,,0.00,WUHU216DAVISVP2,2013-06-02 00:28:00,
2013-06-01 20:33:00,74.3,68.9,29.84,NNE,13,0.0,0.0,83,0.00,,,0.00,WUHU216DAVISVP2,2013-06-02 00:33:00,
2013-06-01 20:38:00,73.9,69.1,29.84,NNE,13,0.0,0.0,85,0.00,,,0.00,WUHU216DAVISVP2,2013-06-02 00:38:00,
2013-06-01 20:43:00,73.5,69.1,29.84,NNE,13,0.0,0.0,86,0.00,,,0.00,WUHU216DAVISVP2,2013-06-02 00:43:00,
2013-06-01 20:48:00,73.1,69.0,29.84,NNE,13,0.0,0.0,87,0.00,,,0.00,WUHU216DAVISVP2,2013-06-02 00:48:00,
2013-06-01 20:53:00,72.7,68.9,29.84,NNE,13,0.0,0.0,88,0.00,,,0.00,WUHU216DAVISVP2,2013-06-02 00:53:00,
2013-06-01 20:58:00,72.4,68.6,29.84,NNE,13,0.0,0.0,88,0.00,,,0.00,WUHU216DAVISVP2,2013-06-02 00:58:00,
2013-06-01 21:03:00,71.9,68.5,29.84,NNE,13,0.0,0.0,89,0.00,,,0.00,WUHU216DAVISVP2,2013-06-02 01:03:00,
2013-06-01 21:08:00,71.5,68.4,29.84,NNE,13,0.0,0.0,90,0.00,,,0.00,WUHU216DAVISVP2,2013-06-02 01:08:00,
2013-06-01 21:13:00,71.2,68.4,29.85,NNE,13,1.0,1.0,91,0.00,,,0.00,WUHU216DAVISVP2,2013-06-02 01:13:00,
2013-06-01 21:18:00,71.1,68.3,29.85,NNE,13,0.0,1.0,91,0.00,,,0.00,WUHU216DAVISVP2,2013-06-02 01:18:00,
2013-06-01 21:23:00,70.7,67.6,29.85,NNE,13,0.0,1.0,90,0.00,,,0.00,WUHU216DAVISVP2,2013-06-02 01:23:00,
2013-06-01 21:28:00,70.3,67.5,29.85,NNE,13,0.0,1.0,91,0.00,,,0.00,WUHU216DAVISVP2,2013-06-02 01:28:00,
2013-06-01 21:33:00,70.2,67.7,29.85,NNE,13,0.0,0.0,92,0.00,,,0.00,WUHU216DAVISVP2,2013-06-02 01:33:00,
2013-06-01 21:38:00,70.1,67.6,29.85,NNE,13,0.0,0.0,92,0.00,,,0.00,WUHU216DAVISVP2,2013-06-02 01:38:00,
2013-06-01 21:43:00,69.9,67.4,29.85,NNE,13,0.0,0.0,92,0.00,,,0.00,WUHU216DAVISVP2,2013-06-02 01:43:00,
2013-06-01 21:48:00,69.7,67.2,29.85,NNE,13,0.0,0.0,92,0.00,,,0.00,WUHU216DAVISVP2,2013-06-02 01:48:00,
2013-06-01 21:53:00,69.5,67.4,29.85,NNE,13,0.0,0.0,93,0.00,,,0.00,WUHU216DAVISVP2,2013-06-02 01:53:00,
2013-06-01 21:58:00,69.4,67.3,29.85,NNE,13,0.0,0.0,93,0.00,,,0.00,WUHU216DAVISVP2,2013-06-02 01:58:00,
2013-06-01 22:03:00,69.2,67.1,29.85,NNE,13,0.0,0.0,93,0.00,,,0.00,WUHU216DAVISVP2,2013-06-02 02:03:00,
2013-06-01 22:08:00,68.9,66.8,29.85,NNE,13,0.0,0.0,93,0.00,,,0.00,WUHU216DAVISVP2,2013-06-02 02:08:00,
2013-06-01 22:13:00,68.9,66.8,29.85,NNE,13,0.0,0.0,93,0.00,,,0.00,WUHU216DAVISVP2,2013-06-02 02:13:00,
2013-06-01 22:18:00,68.9,66.8,29.85,NNE,13,0.0,0.0,93,0.00,,,0.00,WUHU216DAVISVP2,2013-06-02 02:18:00,
2013-06-01 22:23:00,68.4,66.3,29.85,NNE,13,0.0,0.0,93,0.00,,,0.00,WUHU216DAVISVP2,2013-06-02 02:23:00,
2013-06-01 22:28:00,68.3,66.2,29.85,NNE,13,0.0,0.0,93,0.00,,,0.00,WUHU216DAVISVP2,2013-06-02 02:28:00,
2013-06-01 22:33:00,68.3,66.5,29.85,NNE,13,0.0,1.0,94,0.00,,,0.00,WUHU216DAVISVP2,2013-06-02 02:33:00,
2013-06-01 22:38:00,68.2,66.4,29.85,NNE,13,0.0,1.0,94,0.00,,,0.00,WUHU216DAVISVP2,2013-06-02 02:38:00,
2013-06-01 22:43:00,67.9,66.1,29.85,NNE,13,0.0,1.0,94,0.00,,,0.00,WUHU216DAVISVP2,2013-06-02 02:43:00,
2013-06-01 22:48:00,67.7,65.9,29.85,NNE,13,0.0,1.0,94,0.00,,,0.00,WUHU216DAVISVP2,2013-06-02 02:48:00,
2013-06-01 22:53:00,67.7,65.9,29.84,NNE,13,1.0,1.0,94,0.00,,,0.00,WUHU216DAVISVP2,2013-06-02 02:53:00,
2013-06-01 22:58:00,67.6,65.8,29.84,NNE,13,0.0,1.0,94,0.00,,,0.00,WUHU216DAVISVP2,2013-06-02 02:58:00,
2013-06-01 23:03:00,67.4,65.6,29.84,NNE,13,1.0,1.0,94,0.00,,,0.00,WUHU216DAVISVP2,2013-06-02 03:03:00,
2013-06-01 23:08:00,67.2,65.4,29.84,NNE,13,0.0,1.0,94,0.00,,,0.00,WUHU216DAVISVP2,2013-06-02 03:08:00,
2013-06-01 23:13:00,67.0,65.2,29.84,SE,125,1.0,2.0,94,0.00,,,0.00,WUHU216DAVISVP2,2013-06-02 03:13:00,
2013-06-01 23:18:00,66.9,65.1,29.84,SE,125,1.0,2.0,94,0.00,,,0.00,WUHU216DAVISVP2,2013-06-02 03:18:00,
2013-06-01 23:23:00,66.8,64.7,29.84,SE,125,0.0,2.0,93,0.00,,,0.00,WUHU216DAVISVP2,2013-06-02 03:23:00,
2013-06-01 23:28:00,66.9,64.8,29.84,SW,229,1.0,2.0,93,0.00,,,0.00,WUHU216DAVISVP2,2013-06-02 03:28:00,
2013-06-01 23:33:00,67.1,64.7,29.84,SE,132,0.0,1.0,92,0.00,,,0.00,WUHU216DAVISVP2,2013-06-02 03:33:00,
2013-06-01 23:38:00,67.3,64.6,29.84,SE,132,0.0,1.0,91,0.00,,,0.00,WUHU216DAVISVP2,2013-06-02 03:38:00,
2013-06-01 23:43:00,67.1,64.4,29.84,ESE,117,0.0,1.0,91,0.00,,,0.00,WUHU216DAVISVP2,2013-06-02 03:43:00,
2013-06-01 23:48:00,67.7,64.3,29.83,East,90,1.3,2.0,89,0.00,,,0.00,WUHU216DAVISVP2,2013-06-02 03:48:00,
2013-06-01 23:53:00,68.7,64.4,29.83,ENE,77,1.0,3.0,86,0.00,,,0.00,WUHU216DAVISVP2,2013-06-02 03:53:00,
2013-06-01 23:58:00,69.5,64.2,29.83,East,96,1.0,3.0,83,0.00,,,0.00,WUHU216DAVISVP2,2013-06-02 03:58:00,